THORAD DELTA 1 DEB, 42616

Orbit data source: Space-Track

THORAD DELTA 1 DEB, 42616 is space debris in LEO originally from a launch on Fri, 15 Nov 1974 UTC launched from the Air Force Western Test Range (AFWTR). Debris objects in space refer to the collection of defunct objects orbiting the Earth. Examples of debris include non-operational satellites, rocket bodies, and fragments generated from explosions, collisions, or faulty payload assembly.

Loading next visibility...
Identifier
42616, 1974-089GH
Orbit
LEO
Country
Flag of USUS
Related business
Manufacturer
Unknown
Mission
Spacecraft
Bus & Motor
Unknown
Mass
Unknown
Launch date (UTC)
1974-11-15 (52 years ago)
Launch vehicle
Unknown
Launch site
Air Force Western Test Range (AFWTR)
Object type
Payload
Rocket body
Debris
Shape & HBR
Unknown shape, 0.1 m
Radar Cross Section
Medium (>0.1 m² and <1 m²)

Expand to show TLE details & history
Last TLE update: 11 hours ago

TLE from 11 hours ago
0 THORAD DELTA 1 DEB
1 42616U 74089GH  26166.06919821  .00000083  00000-0  16986-2 0  9997
2 42616 101.4383  93.7430 0498374 127.0091 259.9412 11.58990237890062
Epoch: 2026-06-15T01:39Z
TLE epoch observation values (Epoch: 2026-06-15T01:39:38.725Z)
Latitude
20.95959°
Longitude
161.0463°
Altitude
1,963.43 km
Speed
6.877 km/s
True Right ascension
05h 57m 16s
True Declination
20° 51' 42"
Sunlit
Object was in daylight at epoch
Visualization orbit readout
Latitude
Unknown
Longitude
Unknown
Altitude
Unknown
Speed
Unknown
Apparent Right ascension
Unknown
Apparent Declination
Unknown
Sunlit
N/A
Visualization observer readout
Local Sidereal Time
22:48:41
Azimuth
Unknown
Elevation
Unknown
Doppler factor
Unknown
Orbital elements
Apogee altitude
2,278.446 km
Perigee altitude
1,456.564 km
Semi-major axis
8,245.642 km
Eccentricity
0.04984
Inclination
101.4383°
RAAN
93.743°
Arg. of periapsis
127.0091°
True anomaly
254.38729°
Mean anomaly
259.9412°
Eccentric anomaly
257.15716°
Mean motion
2.89872 °/min
Orbital period
124.19 mins
BSTAR
0.0016986
Loading maneuver chart data...
Computing Atmospheric mass density...

Documentation

Showing up to 5 results
|